Location: Barnston
(51.8500°N, 0.4000°E)
Time: 04:28:59
(UTC+00:00)

Envisat - Pass Details

Date: 26 September 2023
Orbit: 762 x 764 km, 98.3° (Epoch: 29 November)

Event Time Altitude Azimuth Distance (km) Brightness Sun altitude
Rises 03:46:41 0° 15° (NNE) 3,246 6.8 -19.4°
Reaches altitude 10° 03:49:01 10° 17° (NNE) 2,315 6.0 -19.0°
Maximum altitude 03:54:08 79° 104° (ESE) 786 3.1 -18.3°
Enters shadow 03:59:04 11° 191° (SSW) 2,244 5.1 -17.6°
